Station Historical Data
Daily Summary for September 30, 2017 Units:  English    Metric   Both
« Previous Day
Next Day »
Daily Weekly Monthly Yearly Custom
  High: Low: Average:
Temperature: 79.2 °F 62.9 °F 70.9 °F
Dew Point: 64.5 °F 53.3 °F 58.5 °F
Humidity: 89% 43% 67%
Wind Speed: 13.0mph 3.0mph 5.7mph
Wind Gust: 21.0mph - -
Wind- - ESE
Pressure: 30.17 in 30.06 in -
Precipitation: 0.00 in    
Historical Graphs
 
 
Tabular Data for September 30, 2017
Time Temperature Dew Point Pressure Wind Wind Speed Wind Gust Humidity Rainfall Rate (Hourly) Conditions
00:00 70.7 °F 64.2 °F 30.06 in North 6.0 mph 6.0 mph 80% 0.00 in FEW
00:05 70.8 °F 64.3 °F 30.06 in North 6.0 mph 6.0 mph 80% 0.00 in FEW
00:10 70.7 °F 64.2 °F 30.06 in North 6.0 mph 6.0 mph 80% 0.00 in FEW
00:15 70.6 °F 64.1 °F 30.07 in North 5.0 mph 6.0 mph 80% 0.00 in BKN
00:20 70.6 °F 64.1 °F 30.06 in NNW 5.0 mph 5.0 mph 80% 0.00 in BKN
00:25 70.6 °F 64.5 °F 30.06 in NNW 5.0 mph 5.0 mph 81% 0.00 in BKN
00:30 70.5 °F 64.4 °F 30.06 in NNW 5.0 mph 5.0 mph 81% 0.00 in BKN
00:40 70.1 °F 64.3 °F 30.06 in NNW 5.0 mph 5.0 mph 82% 0.00 in BKN
00:45 70.0 °F 64.2 °F 30.06 in NNW 5.0 mph 5.0 mph 82% 0.00 in BKN
00:50 69.9 °F 64.2 °F 30.06 in NNW 5.0 mph 5.0 mph 82% 0.00 in BKN
00:55 69.8 °F 64.4 °F 30.06 in NNW 5.0 mph 5.0 mph 83% 0.00 in BKN
01:00 69.7 °F 64.3 °F 30.06 in NNW 5.0 mph 5.0 mph 83% 0.00 in BKN
01:05 69.6 °F 64.2 °F 30.06 in NNW 5.0 mph 5.0 mph 83% 0.00 in BKN
01:10 69.6 °F 64.5 °F 30.06 in NNW 5.0 mph 5.0 mph 84% 0.00 in BKN
01:15 69.5 °F 64.5 °F 30.06 in North 5.0 mph 5.0 mph 84% 0.00 in FEW
01:20 69.4 °F 64.4 °F 30.06 in NNE 5.0 mph 5.0 mph 84% 0.00 in FEW
01:25 69.2 °F 64.2 °F 30.06 in NNE 5.0 mph 5.0 mph 84% 0.00 in FEW
01:30 69.1 °F 64.1 °F 30.06 in NNE 5.0 mph 5.0 mph 84% 0.00 in FEW
01:35 69.0 °F 64.0 °F 30.06 in NNE 5.0 mph 5.0 mph 84% 0.00 in FEW
01:40 68.9 °F 63.9 °F 30.06 in NNE 5.0 mph 5.0 mph 84% 0.00 in FEW
01:45 69.0 °F 64.0 °F 30.06 in NNE 5.0 mph 5.0 mph 84% 0.00 in FEW
01:50 69.0 °F 64.0 °F 30.06 in NNE 5.0 mph 5.0 mph 84% 0.00 in FEW
01:55 68.9 °F 63.8 °F 30.06 in NNE 5.0 mph 5.0 mph 84% 0.00 in FEW
02:00 68.6 °F 63.9 °F 30.06 in NNE 5.0 mph 5.0 mph 85% 0.00 in FEW
02:05 68.4 °F 63.7 °F 30.06 in NNE 5.0 mph 5.0 mph 85% 0.00 in FEW
02:10 68.3 °F 63.6 °F 30.06 in NNE 5.0 mph 5.0 mph 85% 0.00 in FEW
02:15 68.1 °F 63.4 °F 30.06 in North 3.0 mph 5.0 mph 85% 0.00 in FEW
02:20 68.0 °F 63.3 °F 30.06 in North 3.0 mph 3.0 mph 85% 0.00 in FEW
02:25 67.9 °F 63.6 °F 30.06 in North 3.0 mph 3.0 mph 86% 0.00 in FEW
02:30 67.8 °F 63.5 °F 30.06 in North 3.0 mph 3.0 mph 86% 0.00 in FEW
02:35 67.8 °F 63.5 °F 30.06 in North 3.0 mph 3.0 mph 86% 0.00 in FEW
02:40 67.7 °F 63.4 °F 30.06 in North 3.0 mph 3.0 mph 86% 0.00 in FEW
02:45 67.7 °F 63.4 °F 30.06 in North 3.0 mph 3.0 mph 86% 0.00 in FEW
02:50 67.6 °F 63.3 °F 30.06 in North 3.0 mph 3.0 mph 86% 0.00 in FEW
02:55 67.6 °F 63.2 °F 30.06 in North 3.0 mph 3.0 mph 86% 0.00 in FEW
03:00 67.5 °F 63.2 °F 30.06 in North 3.0 mph 3.0 mph 86% 0.00 in FEW
03:05 67.4 °F 63.1 °F 30.06 in North 3.0 mph 3.0 mph 86% 0.00 in FEW
03:10 67.3 °F 63.0 °F 30.06 in North 3.0 mph 3.0 mph 86% 0.00 in FEW
03:15 67.2 °F 63.2 °F 30.06 in North 3.0 mph 3.0 mph 87% 0.00 in SCT
03:25 67.0 °F 63.0 °F 30.06 in North 3.0 mph 3.0 mph 87% 0.00 in SCT
03:30 66.9 °F 62.9 °F 30.06 in North 3.0 mph 3.0 mph 87% 0.00 in SCT
03:40 66.8 °F 62.8 °F 30.06 in North 3.0 mph 3.0 mph 87% 0.00 in SCT
03:45 66.7 °F 62.7 °F 30.06 in North 3.0 mph 3.0 mph 87% 0.00 in SCT
03:50 66.7 °F 62.7 °F 30.06 in North 3.0 mph 3.0 mph 87% 0.00 in SCT
03:55 66.7 °F 62.7 °F 30.06 in North 3.0 mph 3.0 mph 87% 0.00 in SCT
04:00 66.8 °F 62.8 °F 30.07 in North 3.0 mph 3.0 mph 87% 0.00 in SCT
04:05 66.8 °F 62.8 °F 30.07 in North 3.0 mph 3.0 mph 87% 0.00 in SCT
04:10 66.8 °F 62.8 °F 30.07 in North 3.0 mph 3.0 mph 87% 0.00 in SCT
04:15 66.7 °F 62.7 °F 30.07 in North 3.0 mph 3.0 mph 87% 0.00 in SCT
04:20 66.7 °F 62.7 °F 30.07 in North 3.0 mph 3.0 mph 87% 0.00 in SCT
04:25 66.6 °F 62.6 °F 30.07 in North 3.0 mph 3.0 mph 87% 0.00 in SCT
04:30 66.6 °F 62.6 °F 30.07 in North 3.0 mph 3.0 mph 87% 0.00 in SCT
04:35 66.6 °F 62.6 °F 30.07 in North 3.0 mph 3.0 mph 87% 0.00 in SCT
04:40 66.4 °F 62.4 °F 30.07 in North 3.0 mph 3.0 mph 87% 0.00 in SCT
04:45 66.3 °F 62.7 °F 30.07 in North 3.0 mph 3.0 mph 88% 0.00 in SCT
04:50 66.2 °F 62.5 °F 30.07 in North 3.0 mph 3.0 mph 88% 0.00 in SCT
04:55 66.1 °F 62.4 °F 30.08 in North 3.0 mph 3.0 mph 88% 0.00 in SCT
05:00 66.1 °F 62.4 °F 30.08 in North 3.0 mph 3.0 mph 88% 0.00 in SCT
05:05 65.9 °F 62.2 °F 30.07 in North 3.0 mph 3.0 mph 88% 0.00 in SCT
05:10 65.8 °F 62.1 °F 30.07 in North 3.0 mph 3.0 mph 88% 0.00 in SCT
05:15 65.7 °F 62.0 °F 30.07 in NNE 3.0 mph 3.0 mph 88% 0.00 in SCT
05:20 65.6 °F 62.3 °F 30.07 in NNE 3.0 mph 3.0 mph 89% 0.00 in SCT
05:25 65.5 °F 62.2 °F 30.07 in NNE 3.0 mph 3.0 mph 89% 0.00 in SCT
05:30 65.4 °F 62.1 °F 30.08 in NNE 3.0 mph 3.0 mph 89% 0.00 in SCT
05:35 65.4 °F 61.8 °F 30.08 in NNE 3.0 mph 3.0 mph 88% 0.00 in SCT
05:45 65.6 °F 61.9 °F 30.08 in NNE 3.0 mph 3.0 mph 88% 0.00 in SCT
05:50 65.8 °F 61.8 °F 30.09 in NNE 3.0 mph 3.0 mph 87% 0.00 in SCT
05:55 65.9 °F 62.0 °F 30.09 in NNE 3.0 mph 3.0 mph 87% 0.00 in SCT
06:00 65.9 °F 61.9 °F 30.09 in NNE 3.0 mph 3.0 mph 87% 0.00 in SCT
06:05 65.8 °F 61.8 °F 30.09 in NNE 3.0 mph 3.0 mph 87% 0.00 in SCT
06:10 65.6 °F 61.7 °F 30.09 in NNE 3.0 mph 3.0 mph 87% 0.00 in SCT
06:15 65.6 °F 61.6 °F 30.09 in NNE 3.0 mph 3.0 mph 87% 0.00 in CLR
06:20 65.5 °F 61.8 °F 30.09 in North 3.0 mph 3.0 mph 88% 0.00 in CLR
06:25 65.4 °F 61.4 °F 30.09 in NNE 3.0 mph 3.0 mph 87% 0.00 in BKN
06:30 65.3 °F 61.3 °F 30.09 in NNE 3.0 mph 3.0 mph 87% 0.00 in BKN
06:35 65.4 °F 60.8 °F 30.09 in NNE 3.0 mph 3.0 mph 85% 0.00 in BKN
06:40 65.7 °F 60.4 °F 30.09 in NNE 3.0 mph 3.0 mph 83% 0.00 in BKN
06:45 66.1 °F 60.1 °F 30.10 in NNE 3.0 mph 3.0 mph 81% 0.00 in BKN
06:50 66.8 °F 59.7 °F 30.10 in NNE 3.0 mph 3.0 mph 78% 0.00 in BKN
06:55 67.1 °F 59.6 °F 30.10 in NE 5.0 mph 5.0 mph 77% 0.00 in SCT
07:00 67.2 °F 59.3 °F 30.10 in NE 5.0 mph 5.0 mph 76% 0.00 in SCT
07:05 67.4 °F 59.2 °F 30.10 in NE 5.0 mph 5.0 mph 75% 0.00 in SCT
07:10 67.5 °F 58.9 °F 30.10 in NE 5.0 mph 5.0 mph 74% 0.00 in SCT
07:15 67.5 °F 58.9 °F 30.10 in NE 6.0 mph 6.0 mph 74% 0.00 in FEW
07:20 67.6 °F 59.0 °F 30.10 in ENE 6.0 mph 6.0 mph 74% 0.00 in FEW
07:25 67.6 °F 58.6 °F 30.10 in ENE 6.0 mph 6.0 mph 73% 0.00 in FEW
07:30 67.6 °F 58.6 °F 30.10 in ENE 6.0 mph 6.0 mph 73% 0.00 in FEW
07:40 67.7 °F 58.0 °F 30.11 in ENE 6.0 mph 6.0 mph 71% 0.00 in FEW
07:45 67.6 °F 57.5 °F 30.11 in ENE 6.0 mph 6.0 mph 70% 0.00 in FEW
07:50 67.7 °F 57.6 °F 30.11 in ENE 6.0 mph 6.0 mph 70% 0.00 in FEW
07:55 67.7 °F 57.2 °F 30.11 in ENE 6.0 mph 6.0 mph 69% 0.00 in FEW
08:00 67.8 °F 57.3 °F 30.11 in ENE 6.0 mph 6.0 mph 69% 0.00 in FEW
08:05 67.9 °F 57.0 °F 30.12 in ENE 6.0 mph 6.0 mph 68% 0.00 in FEW
08:10 68.0 °F 57.1 °F 30.12 in ENE 6.0 mph 6.0 mph 68% 0.00 in FEW
08:15 68.1 °F 57.1 °F 30.12 in ENE 6.0 mph 6.0 mph 68% 0.00 in BKN
08:20 68.3 °F 56.9 °F 30.12 in ENE 6.0 mph 6.0 mph 67% 0.00 in BKN
08:25 68.4 °F 56.6 °F 30.12 in ENE 6.0 mph 6.0 mph 66% 0.00 in BKN
08:30 68.5 °F 56.3 °F 30.12 in ENE 6.0 mph 6.0 mph 65% 0.00 in BKN
08:40 68.7 °F 56.5 °F 30.12 in ENE 6.0 mph 6.0 mph 65% 0.00 in BKN
08:45 68.7 °F 56.5 °F 30.12 in ENE 6.0 mph 6.0 mph 65% 0.00 in BKN
08:50 68.7 °F 56.9 °F 30.12 in ENE 6.0 mph 6.0 mph 66% 0.00 in BKN
08:55 68.8 °F 57.4 °F 30.13 in ENE 6.0 mph 6.0 mph 67% 0.00 in BKN
09:00 68.9 °F 56.6 °F 30.13 in ENE 6.0 mph 6.0 mph 65% 0.00 in BKN
09:05 69.0 °F 55.9 °F 30.13 in ENE 6.0 mph 6.0 mph 63% 0.00 in BKN
09:10 69.1 °F 56.0 °F 30.13 in ENE 6.0 mph 6.0 mph 63% 0.00 in BKN
09:15 69.2 °F 56.1 °F 30.13 in ENE 8.0 mph 8.0 mph 63% 0.00 in BKN
09:20 69.3 °F 56.6 °F 30.13 in ENE 8.0 mph 8.0 mph 64% 0.00 in BKN
09:25 69.5 °F 55.5 °F 30.13 in ENE 8.0 mph 8.0 mph 61% 0.00 in BKN
09:30 69.5 °F 55.9 °F 30.14 in ENE 8.0 mph 8.0 mph 62% 0.00 in BKN
09:40 69.5 °F 55.4 °F 30.14 in ENE 8.0 mph 8.0 mph 61% 0.00 in BKN
09:45 69.6 °F 55.1 °F 30.14 in ENE 8.0 mph 8.0 mph 60% 0.00 in BKN
09:50 69.7 °F 55.7 °F 30.14 in ENE 8.0 mph 8.0 mph 61% 0.00 in BKN
10:00 70.1 °F 56.1 °F 30.14 in ENE 8.0 mph 8.0 mph 61% 0.00 in BKN
10:05 70.5 °F 54.5 °F 30.15 in ENE 8.0 mph 8.0 mph 57% 0.00 in BKN
10:10 70.5 °F 55.0 °F 30.15 in ENE 8.0 mph 8.0 mph 58% 0.00 in BKN
10:15 70.5 °F 55.5 °F 30.15 in East 13.0 mph 21.0 mph 59% 0.00 in SCT
10:20 70.6 °F 55.1 °F 30.15 in East 13.0 mph 21.0 mph 58% 0.00 in SCT
10:25 70.7 °F 55.7 °F 30.15 in East 13.0 mph 21.0 mph 59% 0.00 in SCT
10:30 70.9 °F 55.4 °F 30.15 in East 13.0 mph 21.0 mph 58% 0.00 in SCT
10:40 71.5 °F 54.5 °F 30.16 in East 13.0 mph 21.0 mph 55% 0.00 in SCT
10:45 71.8 °F 53.3 °F 30.16 in East 13.0 mph 21.0 mph 52% 0.00 in SCT
10:50 72.3 °F 54.2 °F 30.15 in East 13.0 mph 21.0 mph 53% 0.00 in SCT
10:55 72.6 °F 54.5 °F 30.16 in East 13.0 mph 21.0 mph 53% 0.00 in SCT
11:00 73.2 °F 54.6 °F 30.16 in East 13.0 mph 21.0 mph 52% 0.00 in SCT
11:05 73.7 °F 53.3 °F 30.16 in East 13.0 mph 21.0 mph 49% 0.00 in SCT
11:10 74.0 °F 53.7 °F 30.16 in East 13.0 mph 21.0 mph 49% 0.00 in SCT
11:15 74.6 °F 55.8 °F 30.16 in East 10.0 mph 21.0 mph 52% 0.00 in SCT
11:20 75.0 °F 53.4 °F 30.16 in East 10.0 mph 20.0 mph 47% 0.00 in SCT
11:25 75.5 °F 53.9 °F 30.16 in East 10.0 mph 20.0 mph 47% 0.00 in SCT
11:30 75.7 °F 53.4 °F 30.16 in East 10.0 mph 20.0 mph 46% 0.00 in SCT
11:40 76.1 °F 53.8 °F 30.16 in East 10.0 mph 20.0 mph 46% 0.00 in SCT
11:45 76.3 °F 55.2 °F 30.16 in East 10.0 mph 20.0 mph 48% 0.00 in SCT
11:50 76.9 °F 53.9 °F 30.16 in East 10.0 mph 20.0 mph 45% 0.00 in SCT
11:55 76.9 °F 54.0 °F 30.16 in East 10.0 mph 20.0 mph 45% 0.00 in SCT
12:05 76.7 °F 53.8 °F 30.16 in East 10.0 mph 20.0 mph 45% 0.00 in SCT
12:10 77.2 °F 54.2 °F 30.16 in East 10.0 mph 20.0 mph 45% 0.00 in SCT
12:15 77.5 °F 55.1 °F 30.16 in ENE 8.0 mph 20.0 mph 46% 0.00 in SCT
12:20 77.7 °F 54.7 °F 30.16 in ENE 8.0 mph 8.0 mph 45% 0.00 in SCT
12:25 77.4 °F 54.4 °F 30.16 in ENE 8.0 mph 8.0 mph 45% 0.00 in SCT
12:30 77.5 °F 54.5 °F 30.15 in ENE 8.0 mph 8.0 mph 45% 0.00 in SCT
12:35 77.9 °F 56.0 °F 30.15 in ENE 8.0 mph 8.0 mph 47% 0.00 in SCT
12:40 78.1 °F 54.4 °F 30.15 in ENE 8.0 mph 8.0 mph 44% 0.00 in SCT
12:45 78.0 °F 54.3 °F 30.15 in ENE 8.0 mph 8.0 mph 44% 0.00 in SCT
12:50 77.9 °F 54.8 °F 30.15 in ENE 8.0 mph 8.0 mph 45% 0.00 in SCT
12:55 78.3 °F 55.8 °F 30.15 in ENE 8.0 mph 8.0 mph 46% 0.00 in SCT
13:00 78.8 °F 56.3 °F 30.15 in ENE 8.0 mph 8.0 mph 46% 0.00 in SCT
13:05 79.2 °F 55.4 °F 30.15 in ENE 8.0 mph 8.0 mph 44% 0.00 in SCT
13:10 78.8 °F 54.4 °F 30.14 in ENE 8.0 mph 8.0 mph 43% 0.00 in SCT
13:15 78.3 °F 55.2 °F 30.14 in NE 7.0 mph 8.0 mph 45% 0.00 in SCT
13:20 78.0 °F 56.1 °F 30.14 in NE 7.0 mph 7.0 mph 47% 0.00 in SCT
13:30 78.3 °F 54.0 °F 30.14 in NE 7.0 mph 7.0 mph 43% 0.00 in SCT
13:35 78.2 °F 55.1 °F 30.14 in NE 7.0 mph 7.0 mph 45% 0.00 in SCT
13:45 78.4 °F 55.3 °F 30.13 in NE 7.0 mph 7.0 mph 45% 0.00 in SCT
13:50 79.0 °F 55.2 °F 30.14 in NE 7.0 mph 7.0 mph 44% 0.00 in SCT
13:55 78.7 °F 54.3 °F 30.13 in NE 7.0 mph 7.0 mph 43% 0.00 in SCT
14:00 78.4 °F 54.0 °F 30.13 in NE 7.0 mph 7.0 mph 43% 0.00 in SCT
14:05 78.2 °F 55.1 °F 30.13 in NE 7.0 mph 7.0 mph 45% 0.00 in SCT
14:10 78.0 °F 54.9 °F 30.13 in NE 7.0 mph 7.0 mph 45% 0.00 in SCT
14:15 77.7 °F 55.3 °F 30.13 in NE 3.0 mph 7.0 mph 46% 0.00 in SCT
14:20 77.8 °F 56.0 °F 30.13 in ENE 3.0 mph 3.0 mph 47% 0.00 in SCT
14:25 77.8 °F 54.1 °F 30.13 in ENE 3.0 mph 3.0 mph 44% 0.00 in SCT
14:30 78.0 °F 54.9 °F 30.12 in ENE 3.0 mph 3.0 mph 45% 0.00 in SCT
14:35 78.3 °F 56.4 °F 30.12 in ENE 3.0 mph 3.0 mph 47% 0.00 in SCT
14:40 78.3 °F 55.2 °F 30.12 in ENE 3.0 mph 3.0 mph 45% 0.00 in SCT
14:45 78.4 °F 54.7 °F 30.12 in ENE 3.0 mph 3.0 mph 44% 0.00 in SCT
14:50 78.1 °F 55.1 °F 30.12 in ENE 3.0 mph 3.0 mph 45% 0.00 in SCT
14:55 77.7 °F 54.7 °F 30.12 in ENE 3.0 mph 3.0 mph 45% 0.00 in SCT
15:00 78.0 °F 56.1 °F 30.12 in ENE 3.0 mph 3.0 mph 47% 0.00 in SCT
15:05 78.5 °F 56.0 °F 30.12 in ENE 3.0 mph 3.0 mph 46% 0.00 in SCT
15:10 78.7 °F 56.2 °F 30.11 in ENE 3.0 mph 3.0 mph 46% 0.00 in SCT
15:15 78.5 °F 56.6 °F 30.11 in East 6.0 mph 6.0 mph 47% 0.00 in SCT
15:20 78.5 °F 56.0 °F 30.11 in East 6.0 mph 6.0 mph 46% 0.00 in SCT
15:25 78.2 °F 55.1 °F 30.11 in East 6.0 mph 6.0 mph 45% 0.00 in SCT
15:30 78.2 °F 56.3 °F 30.11 in East 6.0 mph 6.0 mph 47% 0.00 in SCT
15:35 78.2 °F 55.1 °F 30.11 in East 6.0 mph 6.0 mph 45% 0.00 in SCT
15:40 78.1 °F 56.2 °F 30.11 in East 6.0 mph 6.0 mph 47% 0.00 in SCT
15:45 78.1 °F 56.2 °F 30.10 in East 6.0 mph 6.0 mph 47% 0.00 in SCT
15:50 78.1 °F 56.2 °F 30.10 in East 6.0 mph 6.0 mph 47% 0.00 in SCT
15:55 78.0 °F 56.1 °F 30.11 in East 6.0 mph 6.0 mph 47% 0.00 in SCT
16:00 77.8 °F 54.8 °F 30.11 in East 6.0 mph 6.0 mph 45% 0.00 in SCT
16:05 77.8 °F 57.1 °F 30.11 in East 6.0 mph 6.0 mph 49% 0.00 in SCT
16:10 77.9 °F 55.5 °F 30.11 in East 6.0 mph 6.0 mph 46% 0.00 in SCT
16:15 78.1 °F 55.6 °F 30.11 in East 8.0 mph 8.0 mph 46% 0.00 in SCT
16:20 78.3 °F 57.0 °F 30.11 in East 8.0 mph 8.0 mph 48% 0.00 in SCT
16:25 78.6 °F 54.8 °F 30.11 in East 8.0 mph 8.0 mph 44% 0.00 in SCT
16:30 78.8 °F 56.3 °F 30.11 in East 8.0 mph 8.0 mph 46% 0.00 in SCT
16:35 78.9 °F 55.8 °F 30.11 in East 8.0 mph 8.0 mph 45% 0.00 in SCT
16:40 78.7 °F 55.6 °F 30.11 in East 8.0 mph 8.0 mph 45% 0.00 in SCT
16:50 78.2 °F 56.9 °F 30.10 in East 8.0 mph 8.0 mph 48% 0.00 in SCT
16:55 77.9 °F 56.6 °F 30.10 in NE 8.0 mph 8.0 mph 48% 0.00 in CLR
17:00 77.8 °F 56.0 °F 30.10 in NNE 8.0 mph 8.0 mph 47% 0.00 in CLR
17:05 77.7 °F 56.4 °F 30.10 in NNE 8.0 mph 8.0 mph 48% 0.00 in CLR
17:10 77.5 °F 57.9 °F 30.10 in NNE 8.0 mph 8.0 mph 51% 0.00 in CLR
17:15 77.3 °F 58.8 °F 30.10 in NE 6.0 mph 8.0 mph 53% 0.00 in SCT
17:20 77.2 °F 58.2 °F 30.10 in East 6.0 mph 6.0 mph 52% 0.00 in SCT
17:25 77.2 °F 59.2 °F 30.10 in East 6.0 mph 6.0 mph 54% 0.00 in SCT
17:30 76.9 °F 56.3 °F 30.10 in East 6.0 mph 6.0 mph 49% 0.00 in SCT
17:35 77.0 °F 56.9 °F 30.10 in East 6.0 mph 6.0 mph 50% 0.00 in SCT
17:40 76.9 °F 57.4 °F 30.10 in East 6.0 mph 6.0 mph 51% 0.00 in SCT
17:45 76.7 °F 57.2 °F 30.10 in East 6.0 mph 6.0 mph 51% 0.00 in SCT
17:50 76.6 °F 57.7 °F 30.10 in East 6.0 mph 6.0 mph 52% 0.00 in SCT
17:55 76.5 °F 58.6 °F 30.10 in East 6.0 mph 6.0 mph 54% 0.00 in SCT
18:00 76.4 °F 56.9 °F 30.10 in East 6.0 mph 6.0 mph 51% 0.00 in SCT
18:05 76.3 °F 57.4 °F 30.10 in East 6.0 mph 6.0 mph 52% 0.00 in SCT
18:10 76.0 °F 58.6 °F 30.10 in East 6.0 mph 6.0 mph 55% 0.00 in SCT
18:15 75.6 °F 58.3 °F 30.10 in East 6.0 mph 6.0 mph 55% 0.00 in BKN
18:20 75.1 °F 57.8 °F 30.10 in East 6.0 mph 6.0 mph 55% 0.00 in BKN
18:25 74.5 °F 57.8 °F 30.10 in East 6.0 mph 6.0 mph 56% 0.00 in BKN
18:30 74.1 °F 58.4 °F 30.11 in East 6.0 mph 6.0 mph 58% 0.00 in BKN
18:35 73.8 °F 58.1 °F 30.10 in East 6.0 mph 6.0 mph 58% 0.00 in BKN
18:40 73.6 °F 58.4 °F 30.11 in East 6.0 mph 6.0 mph 59% 0.00 in BKN
18:45 73.3 °F 58.1 °F 30.11 in East 6.0 mph 6.0 mph 59% 0.00 in BKN
18:50 73.1 °F 58.4 °F 30.11 in East 6.0 mph 6.0 mph 60% 0.00 in BKN
18:55 72.8 °F 58.1 °F 30.11 in East 6.0 mph 6.0 mph 60% 0.00 in BKN
19:00 72.6 °F 58.4 °F 30.11 in East 6.0 mph 6.0 mph 61% 0.00 in BKN
19:05 72.4 °F 58.7 °F 30.11 in East 6.0 mph 6.0 mph 62% 0.00 in BKN
19:10 72.2 °F 58.5 °F 30.12 in East 6.0 mph 6.0 mph 62% 0.00 in BKN
19:15 72.0 °F 59.2 °F 30.12 in East 6.0 mph 6.0 mph 64% 0.00 in BKN
19:20 71.8 °F 58.5 °F 30.12 in East 6.0 mph 6.0 mph 63% 0.00 in BKN
19:25 71.4 °F 58.6 °F 30.12 in East 6.0 mph 6.0 mph 64% 0.00 in BKN
19:30 71.0 °F 58.6 °F 30.12 in East 6.0 mph 6.0 mph 65% 0.00 in BKN
19:40 70.2 °F 58.7 °F 30.12 in East 6.0 mph 6.0 mph 67% 0.00 in BKN
19:45 69.9 °F 58.9 °F 30.12 in East 6.0 mph 6.0 mph 68% 0.00 in BKN
19:50 69.7 °F 58.7 °F 30.12 in East 6.0 mph 6.0 mph 68% 0.00 in BKN
19:55 69.5 °F 58.9 °F 30.12 in East 6.0 mph 6.0 mph 69% 0.00 in BKN
20:00 69.4 °F 58.8 °F 30.12 in East 6.0 mph 6.0 mph 69% 0.00 in BKN
20:05 69.2 °F 59.0 °F 30.13 in East 6.0 mph 6.0 mph 70% 0.00 in BKN
20:10 69.0 °F 59.2 °F 30.13 in East 6.0 mph 6.0 mph 71% 0.00 in BKN
20:15 68.8 °F 58.6 °F 30.13 in East 6.0 mph 6.0 mph 70% 0.00 in BKN
20:20 68.5 °F 58.7 °F 30.13 in East 6.0 mph 6.0 mph 71% 0.00 in BKN
20:25 68.4 °F 59.0 °F 30.13 in East 6.0 mph 6.0 mph 72% 0.00 in BKN
20:30 68.2 °F 58.8 °F 30.13 in East 6.0 mph 6.0 mph 72% 0.00 in BKN
20:40 67.8 °F 58.8 °F 30.13 in East 6.0 mph 6.0 mph 73% 0.00 in BKN
20:45 67.5 °F 58.9 °F 30.13 in East 6.0 mph 6.0 mph 74% 0.00 in BKN
20:50 67.3 °F 58.3 °F 30.14 in East 6.0 mph 6.0 mph 73% 0.00 in BKN
20:55 67.1 °F 58.2 °F 30.14 in East 6.0 mph 6.0 mph 73% 0.00 in BKN
21:00 67.0 °F 58.4 °F 30.14 in East 6.0 mph 6.0 mph 74% 0.00 in BKN
21:05 66.9 °F 58.3 °F 30.14 in East 6.0 mph 6.0 mph 74% 0.00 in BKN
21:10 66.7 °F 58.1 °F 30.14 in East 6.0 mph 6.0 mph 74% 0.00 in BKN
21:15 66.6 °F 57.7 °F 30.14 in East 6.0 mph 6.0 mph 73% 0.00 in SCT
21:20 66.5 °F 57.6 °F 30.14 in East 6.0 mph 6.0 mph 73% 0.00 in SCT
21:25 66.4 °F 57.9 °F 30.14 in East 6.0 mph 6.0 mph 74% 0.00 in SCT
21:30 66.3 °F 57.4 °F 30.14 in East 6.0 mph 6.0 mph 73% 0.00 in SCT
21:40 66.2 °F 58.0 °F 30.15 in East 6.0 mph 6.0 mph 75% 0.00 in SCT
21:45 66.0 °F 57.5 °F 30.15 in East 6.0 mph 6.0 mph 74% 0.00 in SCT
21:50 65.9 °F 57.4 °F 30.15 in East 6.0 mph 6.0 mph 74% 0.00 in SCT
21:55 65.8 °F 56.9 °F 30.16 in East 6.0 mph 6.0 mph 73% 0.00 in SCT
22:00 65.8 °F 57.6 °F 30.16 in East 6.0 mph 6.0 mph 75% 0.00 in SCT
22:10 65.5 °F 57.4 °F 30.16 in East 6.0 mph 6.0 mph 75% 0.00 in SCT
22:15 65.4 °F 57.6 °F 30.16 in East 3.0 mph 6.0 mph 76% 0.00 in FEW
22:20 65.1 °F 57.7 °F 30.16 in East 3.0 mph 3.0 mph 77% 0.00 in FEW
22:25 64.9 °F 57.5 °F 30.16 in East 3.0 mph 3.0 mph 77% 0.00 in FEW
22:30 64.7 °F 57.7 °F 30.16 in East 3.0 mph 3.0 mph 78% 0.00 in FEW
22:40 64.4 °F 57.4 °F 30.16 in East 3.0 mph 3.0 mph 78% 0.00 in FEW
22:45 64.3 °F 57.6 °F 30.16 in East 3.0 mph 3.0 mph 79% 0.00 in FEW
22:50 64.3 °F 57.6 °F 30.16 in East 3.0 mph 3.0 mph 79% 0.00 in FEW
22:55 64.1 °F 57.5 °F 30.16 in East 3.0 mph 3.0 mph 79% 0.00 in FEW
23:00 64.0 °F 57.4 °F 30.16 in East 3.0 mph 3.0 mph 79% 0.00 in FEW
23:05 63.9 °F 57.6 °F 30.16 in East 3.0 mph 3.0 mph 80% 0.00 in FEW
23:10 63.8 °F 57.2 °F 30.17 in East 3.0 mph 3.0 mph 79% 0.00 in FEW
23:15 63.7 °F 56.7 °F 30.16 in East 3.0 mph 3.0 mph 78% 0.00 in FEW
23:20 63.6 °F 57.0 °F 30.17 in East 3.0 mph 3.0 mph 79% 0.00 in FEW
23:25 63.6 °F 56.9 °F 30.17 in East 3.0 mph 3.0 mph 79% 0.00 in FEW
23:30 63.5 °F 57.2 °F 30.17 in East 3.0 mph 3.0 mph 80% 0.00 in FEW
23:35 63.4 °F 57.1 °F 30.17 in East 3.0 mph 3.0 mph 80% 0.00 in FEW
23:40 63.2 °F 56.9 °F 30.17 in East 3.0 mph 3.0 mph 80% 0.00 in FEW
23:45 63.1 °F 56.8 °F 30.17 in East 3.0 mph 3.0 mph 80% 0.00 in FEW
23:50 63.0 °F 56.7 °F 30.17 in East 3.0 mph 3.0 mph 80% 0.00 in FEW
23:55 62.9 °F 56.6 °F 30.17 in East 3.0 mph 3.0 mph 80% 0.00 in FEW
Piedmont Bend
Compliments of Weather Underground - 4 mb